Flag for Canada Weather past 2 weeks in Churchill, Manitoba, Canada

Now
-9 °F

Clear.


Feels Like: -23 °F
Forecast: -14 / -10 °F
Wind: 6 mph from North

Location: Churchill

Current Time: Apr 1, 2015 at 10:47:33 PM

Latest Report: Apr 1, 2015 at 10:00 PM


Visibility: 15 mi

Pressure: 30.08 "Hg

Humidity: 84%

Dew point: -13 °F

Location of ChurchillLocation

Historic Weather in Churchill — Graph

°F

Churchill temperature yesterday

Maximum temperature yesterday: 18 °F (at 5:49 PM)
Minimum temperature yesterday: -9 °F (at 6:00 AM)
Average temperature yesterday: 5 °F

Past Weeks' High & Low Weather Summary

 TemperatureHumidityPressure
High37 °F (Mar 28, 2:00 PM)93% (Mar 28, 10:00 PM)30.44 "Hg (Mar 28, 10:00 PM)
Low-17 °F (Mar 19, 6:00 AM)48% (Mar 26, 6:00 PM)29.37 "Hg (Mar 28, 3:00 PM)
Average1 °F77%30.05 "Hg
* Reported Mar 17 9:00 PM — Apr 1 9:00 PM, Churchill, Weather by CustomWeather, © 2015

Note: Actual official high and low records may vary slightly from our data, if they occured in-between our weather recording intervals... More about our weather records

Advertising

Churchill weather history for previous 24 hours

 ConditionsComfort  
Time TempWeatherWind HumidityBarometerVisibility
9:00 PM
Wed, Apr 1
-6 °FPassing clouds.9 mph84%30.07 "Hg15 mi
8:00 PM-4 °FPartly sunny.9 mph84%30.07 "Hg15 mi
7:00 PM-2 °FScattered clouds.17 mph84%30.05 "Hg15 mi
6:00 PM0 °FScattered clouds.14 mph84%30.05 "Hg15 mi
5:00 PM0 °FSnow flurries. Broken clouds.13 mph84%30.06 "Hg15 mi
4:00 PM1 °FSnow flurries. Mostly cloudy.14 mph85%30.05 "Hg15 mi
3:00 PM1 °FSnow flurries. Partly sunny.15 mph85%30.04 "Hg15 mi
2:00 PM1 °FSnow flurries. Partly sunny.15 mph85%30.03 "Hg15 mi
1:00 PM1 °FSnow flurries. Partly sunny.15 mph85%30.03 "Hg15 mi
12:00 PM0 °FSnow flurries. Broken clouds.15 mph84%30.04 "Hg15 mi
11:00 AM0 °FBroken clouds.12 mph84%30.05 "Hg15 mi
10:00 AM-2 °FScattered clouds.14 mph84%30.02 "Hg15 mi
9:00 AM-2 °FBroken clouds.14 mph84%30.02 "Hg15 mi
8:00 AM-2 °FScattered clouds.15 mph84%30.01 "Hg15 mi
7:00 AM-4 °FPassing clouds.15 mph84%30.01 "Hg15 mi
6:00 AM-4 °FClear.15 mph84%29.99 "Hg10 mi
5:00 AM-2 °FClear.13 mph84%29.98 "Hg15 mi
4:00 AM0 °FLight snow. Passing clouds.12 mph84%29.96 "Hg15 mi
3:00 AM1 °FLight snow. Passing clouds.12 mph92%29.94 "Hg15 mi
2:00 AM5 °FLight snow. Passing clouds.12 mph92%29.92 "Hg10 mi
1:00 AM7 °FLight snow. Passing clouds.16 mph92%29.90 "Hg10 mi
12:00 AM9 °FLight snow. Passing clouds.15 mph92%29.88 "Hg10 mi
11:00 PM
Tue, Mar 31
14 °FLight snow. Overcast.15 mph92%29.86 "Hg8 mi
10:00 PM16 °FLight snow. Overcast.13 mph93%29.85 "Hg6 mi
Weather by CustomWeather, © 2015

See weather overviewHow to use our weather pages